owner,sensor,date,latitude,longitude,dew_point_temperature,qcFlag 
ADCP,ioos:station:wmo:42362:1,2007-01-09T20:00:00Z,27.7950,-90.6480,3.0,11111222 
ADCP,ioos:station:wmo:42362:1,2007-01-09T21:00:00Z,27.7950,-90.6480,3.0,11111222 
ADCP,ioos:station:wmo:42362:1,2007-01-09T22:00:00Z,27.7950,-90.6480,3.0,11111222 
ADCP,ioos:station:wmo:42362:1,2007-01-09T23:00:00Z,27.7950,-90.6480,3.0,11111222 
ADCP,ioos:station:wmo:42362:1,2007-01-10T00:00:00Z,27.7950,-90.6480,3.0,11111222 
ADCP,ioos:station:wmo:42362:1,2007-01-10T01:00:00Z,27.7950,-90.6480,3.0,11111222 
ADCP,ioos:station:wmo:42362:1,2007-01-10T02:00:00Z,27.7950,-90.6480,6.0,11111222 
ADCP,ioos:station:wmo:42362:1,2007-01-10T03:00:00Z,27.7950,-90.6480,2.0,11111222 
ADCP,ioos:station:wmo:42362:1,2007-01-10T04:00:00Z,27.7950,-90.6480,3.0,11111222 
ADCP,ioos:station:wmo:42362:1,2007-01-10T05:00:00Z,27.7950,-90.6480,3.0,11111222 
ADCP,ioos:station:wmo:42362:1,2007-01-10T06:00:00Z,27.7950,-90.6480,3.0,11111222 
ADCP,ioos:station:wmo:42362:1,2007-01-10T07:00:00Z,27.7950,-90.6480,3.0,11111222 
ADCP,ioos:station:wmo:42362:1,2007-01-10T08:00:00Z,27.7950,-90.6480,4.0,11111222 
ADCP,ioos:station:wmo:42362:1,2007-01-10T09:00:00Z,27.7950,-90.6480,4.0,11111222 
ADCP,ioos:station:wmo:42362:1,2007-01-10T10:00:00Z,27.7950,-90.6480,4.0,11111222 
ADCP,ioos:station:wmo:42362:1,2007-01-10T11:00:00Z,27.7950,-90.6480,4.0,11111222 
ADCP,ioos:station:wmo:42362:1,2007-01-10T12:00:00Z,27.7950,-90.6480,6.0,11111222 
ADCP,ioos:station:wmo:42362:1,2007-01-10T13:00:00Z,27.7950,-90.6480,5.0,11111222 
ADCP,ioos:station:wmo:42362:1,2007-01-10T14:00:00Z,27.7950,-90.6480,4.0,11111222 
ADCP,ioos:station:wmo:42362:1,2007-01-10T15:00:00Z,27.7950,-90.6480,6.0,11111222 
ADCP,ioos:station:wmo:42362:1,2007-01-10T16:00:00Z,27.7950,-90.6480,7.0,11111222 
ADCP,ioos:station:wmo:42362:1,2007-01-10T17:00:00Z,27.7950,-90.6480,9.0,11111222 
ADCP,ioos:station:wmo:42362:1,2007-01-10T18:00:00Z,27.7950,-90.6480,9.0,11111222 
ADCP,ioos:station:wmo:42362:1,2007-01-10T19:00:00Z,27.7950,-90.6480,9.0,11111222 
ADCP,ioos:station:wmo:42362:1,2007-01-10T20:00:00Z,27.7950,-90.6480,9.0,11111222 
ADCP,ioos:station:wmo:42362:1,2007-01-10T21:00:00Z,27.7950,-90.6480,10.0,11111222 
ADCP,ioos:station:wmo:42362:1,2007-01-10T22:00:00Z,27.7950,-90.6480,9.0,11111222 
ADCP,ioos:station:wmo:42362:1,2007-01-10T23:00:00Z,27.7950,-90.6480,9.0,11111222 
ADCP,ioos:station:wmo:42362:1,2007-01-11T00:00:00Z,27.7950,-90.6480,9.0,11111222 
ADCP,ioos:station:wmo:42362:1,2007-01-11T01:00:00Z,27.7950,-90.6480,9.0,11111222 
ADCP,ioos:station:wmo:42362:1,2007-01-11T02:00:00Z,27.7950,-90.6480,9.0,11111222 
ADCP,ioos:station:wmo:42362:1,2007-01-11T03:00:00Z,27.7950,-90.6480,9.0,11111222 
ADCP,ioos:station:wmo:42362:1,2007-01-11T04:00:00Z,27.7950,-90.6480,9.0,11111222 
ADCP,ioos:station:wmo:42362:1,2007-01-11T05:00:00Z,27.7950,-90.6480,9.0,11111222 
ADCP,ioos:station:wmo:42362:1,2007-01-11T06:00:00Z,27.7950,-90.6480,10.0,11111222 
ADCP,ioos:station:wmo:42362:1,2007-01-11T07:00:00Z,27.7950,-90.6480,9.0,11111222 
ADCP,ioos:station:wmo:42362:1,2007-01-11T08:00:00Z,27.7950,-90.6480,9.0,11111222 
ADCP,ioos:station:wmo:42362:1,2007-01-11T09:00:00Z,27.7950,-90.6480,11.0,11111222 
ADCP,ioos:station:wmo:42362:1,2007-01-11T10:00:00Z,27.7950,-90.6480,11.0,11111222 
ADCP,ioos:station:wmo:42362:1,2007-01-11T11:00:00Z,27.7950,-90.6480,11.0,11111222 
ADCP,ioos:station:wmo:42362:1,2007-01-11T12:00:00Z,27.7950,-90.6480,3.0,11111222 
ADCP,ioos:station:wmo:42362:1,2007-01-11T13:00:00Z,27.7950,-90.6480,12.0,11111222 
ADCP,ioos:station:wmo:42362:1,2007-01-11T14:00:00Z,27.7950,-90.6480,13.0,11111222 
ADCP,ioos:station:wmo:42362:1,2007-01-11T15:00:00Z,27.7950,-90.6480,13.0,11111222 
ADCP,ioos:station:wmo:42362:1,2007-01-11T16:00:00Z,27.7950,-90.6480,13.0,11111222 
ADCP,ioos:station:wmo:42362:1,2007-01-11T17:00:00Z,27.7950,-90.6480,14.0,11111222 
ADCP,ioos:station:wmo:42362:1,2007-01-11T18:00:00Z,27.7950,-90.6480,14.0,11111222 
ADCP,ioos:station:wmo:42362:1,2007-01-11T19:00:00Z,27.7950,-90.6480,14.0,11111222 
ADCP,ioos:station:wmo:42362:1,2007-01-11T20:00:00Z,27.7950,-90.6480,14.0,11111222 
ADCP,ioos:station:wmo:42362:1,2007-01-11T21:00:00Z,27.7950,-90.6480,3.0,11111222 
ADCP,ioos:station:wmo:42362:1,2007-01-11T22:00:00Z,27.7950,-90.6480,16.0,11111222 
ADCP,ioos:station:wmo:42362:1,2007-01-11T23:00:00Z,27.7950,-90.6480,16.0,11111222 
ADCP,ioos:station:wmo:42362:1,2007-01-12T00:00:00Z,27.7950,-90.6480,17.0,11111222 
ADCP,ioos:station:wmo:42362:1,2007-01-12T01:00:00Z,27.7950,-90.6480,18.0,11111222 
ADCP,ioos:station:wmo:42362:1,2007-01-12T02:00:00Z,27.7950,-90.6480,18.0,11111222 
ADCP,ioos:station:wmo:42362:1,2007-01-12T03:00:00Z,27.7950,-90.6480,18.0,11111222 
ADCP,ioos:station:wmo:42362:1,2007-01-12T04:00:00Z,27.7950,-90.6480,18.0,11111222 
ADCP,ioos:station:wmo:42362:1,2007-01-12T05:00:00Z,27.7950,-90.6480,18.0,11111222 
ADCP,ioos:station:wmo:42362:1,2007-01-12T06:00:00Z,27.7950,-90.6480,3.0,11111222 
ADCP,ioos:station:wmo:42362:1,2007-01-12T07:00:00Z,27.7950,-90.6480,18.0,11111222 
ADCP,ioos:station:wmo:42362:1,2007-01-12T08:00:00Z,27.7950,-90.6480,18.0,11111222 
ADCP,ioos:station:wmo:42362:1,2007-01-12T09:00:00Z,27.7950,-90.6480,18.0,11111222 
ADCP,ioos:station:wmo:42362:1,2007-01-12T10:00:00Z,27.7950,-90.6480,18.0,11111222 
ADCP,ioos:station:wmo:42362:1,2007-01-12T11:00:00Z,27.7950,-90.6480,19.0,11111222 
ADCP,ioos:station:wmo:42362:1,2007-01-12T12:00:00Z,27.7950,-90.6480,19.0,11111222 
ADCP,ioos:station:wmo:42362:1,2007-01-12T13:00:00Z,27.7950,-90.6480,19.0,11111222 
ADCP,ioos:station:wmo:42362:1,2007-01-12T14:00:00Z,27.7950,-90.6480,19.0,11111222 
ADCP,ioos:station:wmo:42362:1,2007-01-12T15:00:00Z,27.7950,-90.6480,19.0,11111222 
ADCP,ioos:station:wmo:42362:1,2007-01-12T16:00:00Z,27.7950,-90.6480,19.0,11111222 
ADCP,ioos:station:wmo:42362:1,2007-01-12T17:00:00Z,27.7950,-90.6480,20.0,11111222 
ADCP,ioos:station:wmo:42362:1,2007-01-12T18:00:00Z,27.7950,-90.6480,20.0,11111222 
ADCP,ioos:station:wmo:42362:1,2007-01-12T19:00:00Z,27.7950,-90.6480,20.0,11111222 
ADCP,ioos:station:wmo:42362:1,2007-01-12T20:00:00Z,27.7950,-90.6480,20.0,11111222 
ADCP,ioos:station:wmo:42362:1,2007-01-12T21:00:00Z,27.7950,-90.6480,20.0,11111222 
ADCP,ioos:station:wmo:42362:1,2007-01-12T22:00:00Z,27.7950,-90.6480,20.0,11111222 
ADCP,ioos:station:wmo:42362:1,2007-01-12T23:00:00Z,27.7950,-90.6480,20.0,11111222 
ADCP,ioos:station:wmo:42362:1,2007-01-13T00:00:00Z,27.7950,-90.6480,20.0,11111222 
ADCP,ioos:station:wmo:42362:1,2007-01-13T01:00:00Z,27.7950,-90.6480,19.0,11111222 
ADCP,ioos:station:wmo:42362:1,2007-01-13T02:00:00Z,27.7950,-90.6480,19.0,11111222 
ADCP,ioos:station:wmo:42362:1,2007-01-13T03:00:00Z,27.7950,-90.6480,20.0,11111222 
ADCP,ioos:station:wmo:42362:1,2007-01-13T04:00:00Z,27.7950,-90.6480,20.0,11111222 
ADCP,ioos:station:wmo:42362:1,2007-01-13T05:00:00Z,27.7950,-90.6480,20.0,11111222 
ADCP,ioos:station:wmo:42362:1,2007-01-13T06:00:00Z,27.7950,-90.6480,19.0,11111222 
ADCP,ioos:station:wmo:42362:1,2007-01-13T07:00:00Z,27.7950,-90.6480,19.0,11111222 
ADCP,ioos:station:wmo:42362:1,2007-01-13T08:00:00Z,27.7950,-90.6480,19.0,11111222 
ADCP,ioos:station:wmo:42362:1,2007-01-13T09:00:00Z,27.7950,-90.6480,19.0,11111222 
ADCP,ioos:station:wmo:42362:1,2007-01-13T10:00:00Z,27.7950,-90.6480,19.0,11111222 
ADCP,ioos:station:wmo:42362:1,2007-01-13T11:00:00Z,27.7950,-90.6480,19.0,11111222 
ADCP,ioos:station:wmo:42362:1,2007-01-13T12:00:00Z,27.7950,-90.6480,19.0,11111222 
ADCP,ioos:station:wmo:42362:1,2007-01-13T13:00:00Z,27.7950,-90.6480,18.0,11111222 
ADCP,ioos:station:wmo:42362:1,2007-01-13T14:00:00Z,27.7950,-90.6480,18.0,11111222 
ADCP,ioos:station:wmo:42362:1,2007-01-13T15:00:00Z,27.7950,-90.6480,18.0,11111222 
ADCP,ioos:station:wmo:42362:1,2007-01-13T16:00:00Z,27.7950,-90.6480,18.0,11111222 
ADCP,ioos:station:wmo:42362:1,2007-01-13T17:00:00Z,27.7950,-90.6480,19.0,11111222 
ADCP,ioos:station:wmo:42362:1,2007-01-13T18:00:00Z,27.7950,-90.6480,19.0,11111222 
ADCP,ioos:station:wmo:42362:1,2007-01-13T19:00:00Z,27.7950,-90.6480,19.0,11111222 
ADCP,ioos:station:wmo:42362:1,2007-01-13T20:00:00Z,27.7950,-90.6480,19.0,11111222 
ADCP,ioos:station:wmo:42362:1,2007-01-13T21:00:00Z,27.7950,-90.6480,19.0,11111222 
ADCP,ioos:station:wmo:42362:1,2007-01-13T22:00:00Z,27.7950,-90.6480,19.0,11111222 
ADCP,ioos:station:wmo:42362:1,2007-01-13T23:00:00Z,27.7950,-90.6480,20.0,11111222 
ADCP,ioos:station:wmo:42362:1,2007-01-14T00:00:00Z,27.7950,-90.6480,19.0,11111222 
ADCP,ioos:station:wmo:42362:1,2007-01-14T01:00:00Z,27.7950,-90.6480,19.0,11111222 
ADCP,ioos:station:wmo:42362:1,2007-01-14T02:00:00Z,27.7950,-90.6480,19.0,11111222 
ADCP,ioos:station:wmo:42362:1,2007-01-14T03:00:00Z,27.7950,-90.6480,19.0,11111222 
ADCP,ioos:station:wmo:42362:1,2007-01-14T04:00:00Z,27.7950,-90.6480,19.0,11111222 
ADCP,ioos:station:wmo:42362:1,2007-01-14T05:00:00Z,27.7950,-90.6480,20.0,11111222 
ADCP,ioos:station:wmo:42362:1,2007-01-14T06:00:00Z,27.7950,-90.6480,20.0,11111222 
ADCP,ioos:station:wmo:42362:1,2007-01-14T07:00:00Z,27.7950,-90.6480,20.0,11111222 
ADCP,ioos:station:wmo:42362:1,2007-01-14T08:00:00Z,27.7950,-90.6480,20.0,11111222 
ADCP,ioos:station:wmo:42362:1,2007-01-14T09:00:00Z,27.7950,-90.6480,20.0,11111222 
ADCP,ioos:station:wmo:42362:1,2007-01-14T10:00:00Z,27.7950,-90.6480,20.0,11111222 
ADCP,ioos:station:wmo:42362:1,2007-01-14T11:00:00Z,27.7950,-90.6480,20.0,11111222 
ADCP,ioos:station:wmo:42362:1,2007-01-14T12:00:00Z,27.7950,-90.6480,20.0,11111222 
ADCP,ioos:station:wmo:42362:1,2007-01-14T13:00:00Z,27.7950,-90.6480,20.0,11111222 
ADCP,ioos:station:wmo:42362:1,2007-01-14T14:00:00Z,27.7950,-90.6480,20.0,11111222 
ADCP,ioos:station:wmo:42362:1,2007-01-14T15:00:00Z,27.7950,-90.6480,20.0,11111222 
ADCP,ioos:station:wmo:42362:1,2007-01-14T16:00:00Z,27.7950,-90.6480,20.0,11111222 
ADCP,ioos:station:wmo:42362:1,2007-01-14T17:00:00Z,27.7950,-90.6480,20.0,11111222 
ADCP,ioos:station:wmo:42362:1,2007-01-14T18:00:00Z,27.7950,-90.6480,20.0,11111222 
ADCP,ioos:station:wmo:42362:1,2007-01-14T19:00:00Z,27.7950,-90.6480,20.0,11111222 
ADCP,ioos:station:wmo:42362:1,2007-01-14T20:00:00Z,27.7950,-90.6480,20.0,11111222 
ADCP,ioos:station:wmo:42362:1,2007-01-14T21:00:00Z,27.7950,-90.6480,20.0,11111222 
ADCP,ioos:station:wmo:42362:1,2007-01-14T22:00:00Z,27.7950,-90.6480,20.0,11111222 
ADCP,ioos:station:wmo:42362:1,2007-01-14T23:00:00Z,27.7950,-90.6480,20.0,11111222 
ADCP,ioos:station:wmo:42362:1,2007-01-15T00:00:00Z,27.7950,-90.6480,20.0,11111222 
ADCP,ioos:station:wmo:42362:1,2007-01-15T01:00:00Z,27.7950,-90.6480,19.0,11111222 
ADCP,ioos:station:wmo:42362:1,2007-01-15T02:00:00Z,27.7950,-90.6480,20.0,11111222 
ADCP,ioos:station:wmo:42362:1,2007-01-15T03:00:00Z,27.7950,-90.6480,19.0,11111222 
ADCP,ioos:station:wmo:42362:1,2007-01-15T04:00:00Z,27.7950,-90.6480,19.0,11111222 
ADCP,ioos:station:wmo:42362:1,2007-01-15T05:00:00Z,27.7950,-90.6480,19.0,11111222 
ADCP,ioos:station:wmo:42362:1,2007-01-15T06:00:00Z,27.7950,-90.6480,19.0,11111222 
ADCP,ioos:station:wmo:42362:1,2007-01-15T07:00:00Z,27.7950,-90.6480,19.0,11111222 
ADCP,ioos:station:wmo:42362:1,2007-01-15T08:00:00Z,27.7950,-90.6480,20.0,11111222 
ADCP,ioos:station:wmo:42362:1,2007-01-15T09:00:00Z,27.7950,-90.6480,20.0,11111222 
ADCP,ioos:station:wmo:42362:1,2007-01-15T10:00:00Z,27.7950,-90.6480,20.0,11111222 
ADCP,ioos:station:wmo:42362:1,2007-01-15T11:00:00Z,27.7950,-90.6480,20.0,11111222 
ADCP,ioos:station:wmo:42362:1,2007-01-15T12:00:00Z,27.7950,-90.6480,20.0,11111222 
ADCP,ioos:station:wmo:42362:1,2007-01-15T13:00:00Z,27.7950,-90.6480,20.0,11111222 
ADCP,ioos:station:wmo:42362:1,2007-01-15T14:00:00Z,27.7950,-90.6480,21.0,11111222 
ADCP,ioos:station:wmo:42362:1,2007-01-15T15:00:00Z,27.7950,-90.6480,21.0,11111222 
ADCP,ioos:station:wmo:42362:1,2007-01-15T16:00:00Z,27.7950,-90.6480,21.0,11111222 
ADCP,ioos:station:wmo:42362:1,2007-01-15T17:00:00Z,27.7950,-90.6480,21.0,11111222 
ADCP,ioos:station:wmo:42362:1,2007-01-15T18:00:00Z,27.7950,-90.6480,21.0,11111222 
ADCP,ioos:station:wmo:42362:1,2007-01-15T19:00:00Z,27.7950,-90.6480,21.0,11111222 
ADCP,ioos:station:wmo:42362:1,2007-01-15T20:00:00Z,27.7950,-90.6480,21.0,11111222 
ADCP,ioos:station:wmo:42362:1,2007-01-15T21:00:00Z,27.7950,-90.6480,21.0,11111222 
ADCP,ioos:station:wmo:42362:1,2007-01-15T22:00:00Z,27.7950,-90.6480,21.0,11111222 
ADCP,ioos:station:wmo:42362:1,2007-01-15T23:00:00Z,27.7950,-90.6480,21.0,11111222 
ADCP,ioos:station:wmo:42362:1,2007-01-16T00:00:00Z,27.7950,-90.6480,21.0,11111222 
ADCP,ioos:station:wmo:42362:1,2007-01-16T01:00:00Z,27.7950,-90.6480,22.0,11111222 
ADCP,ioos:station:wmo:42362:1,2007-01-16T02:00:00Z,27.7950,-90.6480,22.0,11111222 
ADCP,ioos:station:wmo:42362:1,2007-01-16T03:00:00Z,27.7950,-90.6480,22.0,11111222 
ADCP,ioos:station:wmo:42362:1,2007-01-16T04:00:00Z,27.7950,-90.6480,22.0,11111222 
ADCP,ioos:station:wmo:42362:1,2007-01-16T05:00:00Z,27.7950,-90.6480,19.0,11111222 
ADCP,ioos:station:wmo:42362:1,2007-01-16T06:00:00Z,27.7950,-90.6480,18.0,11111222 
ADCP,ioos:station:wmo:42362:1,2007-01-16T07:00:00Z,27.7950,-90.6480,17.0,11111222 
ADCP,ioos:station:wmo:42362:1,2007-01-16T08:00:00Z,27.7950,-90.6480,17.0,11111222 
ADCP,ioos:station:wmo:42362:1,2007-01-16T09:00:00Z,27.7950,-90.6480,17.0,11111222 
ADCP,ioos:station:wmo:42362:1,2007-01-16T10:00:00Z,27.7950,-90.6480,17.0,11111222 
ADCP,ioos:station:wmo:42362:1,2007-01-16T11:00:00Z,27.7950,-90.6480,16.0,11111222 
ADCP,ioos:station:wmo:42362:1,2007-01-16T12:00:00Z,27.7950,-90.6480,14.0,11111222 
ADCP,ioos:station:wmo:42362:1,2007-01-16T13:00:00Z,27.7950,-90.6480,13.0,11111222 
ADCP,ioos:station:wmo:42362:1,2007-01-16T14:00:00Z,27.7950,-90.6480,13.0,11111222 
ADCP,ioos:station:wmo:42362:1,2007-01-16T15:00:00Z,27.7950,-90.6480,13.0,11111222 
ADCP,ioos:station:wmo:42362:1,2007-01-16T16:00:00Z,27.7950,-90.6480,13.0,11111222 
ADCP,ioos:station:wmo:42362:1,2007-01-16T17:00:00Z,27.7950,-90.6480,12.0,11111222 
ADCP,ioos:station:wmo:42362:1,2007-01-16T18:00:00Z,27.7950,-90.6480,12.0,11111222 
ADCP,ioos:station:wmo:42362:1,2007-01-16T19:00:00Z,27.7950,-90.6480,11.0,11111222 
ADCP,ioos:station:wmo:42362:1,2007-01-16T20:00:00Z,27.7950,-90.6480,11.0,11111222 
ADCP,ioos:station:wmo:42362:1,2007-01-16T21:00:00Z,27.7950,-90.6480,11.0,11111222 
ADCP,ioos:station:wmo:42362:1,2007-01-16T22:00:00Z,27.7950,-90.6480,11.0,11111222 
ADCP,ioos:station:wmo:42362:1,2007-01-16T23:00:00Z,27.7950,-90.6480,10.0,11111222 
ADCP,ioos:station:wmo:42362:1,2007-01-17T00:00:00Z,27.7950,-90.6480,9.0,11111222 
ADCP,ioos:station:wmo:42362:1,2007-01-17T01:00:00Z,27.7950,-90.6480,9.0,11111222 
ADCP,ioos:station:wmo:42362:1,2007-01-17T02:00:00Z,27.7950,-90.6480,9.0,11111222 
ADCP,ioos:station:wmo:42362:1,2007-01-17T03:00:00Z,27.7950,-90.6480,9.0,11111222 
ADCP,ioos:station:wmo:42362:1,2007-01-17T04:00:00Z,27.7950,-90.6480,9.0,11111222 
ADCP,ioos:station:wmo:42362:1,2007-01-17T05:00:00Z,27.7950,-90.6480,9.0,11111222 
ADCP,ioos:station:wmo:42362:1,2007-01-17T06:00:00Z,27.7950,-90.6480,10.0,11111222 
ADCP,ioos:station:wmo:42362:1,2007-01-17T07:00:00Z,27.7950,-90.6480,11.0,11111222 
ADCP,ioos:station:wmo:42362:1,2007-01-17T08:00:00Z,27.7950,-90.6480,9.0,11111222 
ADCP,ioos:station:wmo:42362:1,2007-01-17T09:00:00Z,27.7950,-90.6480,9.0,11111222 
ADCP,ioos:station:wmo:42362:1,2007-01-17T10:00:00Z,27.7950,-90.6480,9.0,11111222 
ADCP,ioos:station:wmo:42362:1,2007-01-17T11:00:00Z,27.7950,-90.6480,11.0,11111222 
ADCP,ioos:station:wmo:42362:1,2007-01-17T12:00:00Z,27.7950,-90.6480,11.0,11111222 
ADCP,ioos:station:wmo:42362:1,2007-01-17T13:00:00Z,27.7950,-90.6480,11.0,11111222 
ADCP,ioos:station:wmo:42362:1,2007-01-17T14:00:00Z,27.7950,-90.6480,11.0,11111222 
ADCP,ioos:station:wmo:42362:1,2007-01-17T15:00:00Z,27.7950,-90.6480,11.0,11111222 
ADCP,ioos:station:wmo:42362:1,2007-01-17T16:00:00Z,27.7950,-90.6480,12.0,11111222 
ADCP,ioos:station:wmo:42362:1,2007-01-17T17:00:00Z,27.7950,-90.6480,12.0,11111222 
ADCP,ioos:station:wmo:42362:1,2007-01-17T18:00:00Z,27.7950,-90.6480,12.0,11111222 
ADCP,ioos:station:wmo:42362:1,2007-01-17T19:00:00Z,27.7950,-90.6480,12.0,11111222 
ADCP,ioos:station:wmo:42362:1,2007-01-17T20:00:00Z,27.7950,-90.6480,12.0,11111222 
ADCP,ioos:station:wmo:42362:1,2007-01-17T21:00:00Z,27.7950,-90.6480,12.0,11111222 
ADCP,ioos:station:wmo:42362:1,2007-01-17T22:00:00Z,27.7950,-90.6480,13.0,11111222 
ADCP,ioos:station:wmo:42362:1,2007-01-17T23:00:00Z,27.7950,-90.6480,13.0,11111222 
ADCP,ioos:station:wmo:42362:1,2007-01-18T00:00:00Z,27.7950,-90.6480,13.0,11111222 
ADCP,ioos:station:wmo:42362:1,2007-01-18T01:00:00Z,27.7950,-90.6480,14.0,11111222 
ADCP,ioos:station:wmo:42362:1,2007-01-18T02:00:00Z,27.7950,-90.6480,14.0,11111222 
ADCP,ioos:station:wmo:42362:1,2007-01-18T03:00:00Z,27.7950,-90.6480,15.0,11111222 
ADCP,ioos:station:wmo:42362:1,2007-01-18T04:00:00Z,27.7950,-90.6480,14.0,11111222 
ADCP,ioos:station:wmo:42362:1,2007-01-18T05:00:00Z,27.7950,-90.6480,15.0,11111222 
ADCP,ioos:station:wmo:42362:1,2007-01-18T06:00:00Z,27.7950,-90.6480,15.0,11111222 
ADCP,ioos:station:wmo:42362:1,2007-01-18T07:00:00Z,27.7950,-90.6480,16.0,11111222 
ADCP,ioos:station:wmo:42362:1,2007-01-18T08:00:00Z,27.7950,-90.6480,16.0,11111222 
ADCP,ioos:station:wmo:42362:1,2007-01-18T09:00:00Z,27.7950,-90.6480,16.0,11111222 
ADCP,ioos:station:wmo:42362:1,2007-01-18T10:00:00Z,27.7950,-90.6480,16.0,11111222 
ADCP,ioos:station:wmo:42362:1,2007-01-18T11:00:00Z,27.7950,-90.6480,17.0,11111222 
ADCP,ioos:station:wmo:42362:1,2007-01-18T12:00:00Z,27.7950,-90.6480,17.0,11111222 
ADCP,ioos:station:wmo:42362:1,2007-01-18T13:00:00Z,27.7950,-90.6480,17.0,11111222 
ADCP,ioos:station:wmo:42362:1,2007-01-18T14:00:00Z,27.7950,-90.6480,17.0,11111222 
ADCP,ioos:station:wmo:42362:1,2007-01-18T15:00:00Z,27.7950,-90.6480,17.0,11111222 
ADCP,ioos:station:wmo:42362:1,2007-01-18T16:00:00Z,27.7950,-90.6480,17.0,11111222 
ADCP,ioos:station:wmo:42362:1,2007-01-18T17:00:00Z,27.7950,-90.6480,17.0,11111222 
ADCP,ioos:station:wmo:42362:1,2007-01-18T18:00:00Z,27.7950,-90.6480,18.0,11111222 
ADCP,ioos:station:wmo:42362:1,2007-01-18T19:00:00Z,27.7950,-90.6480,18.0,11111222 
ADCP,ioos:station:wmo:42362:1,2007-01-18T20:00:00Z,27.7950,-90.6480,18.0,11111222 
ADCP,ioos:station:wmo:42362:1,2007-01-18T21:00:00Z,27.7950,-90.6480,18.0,11111222 
ADCP,ioos:station:wmo:42362:1,2007-01-18T22:00:00Z,27.7950,-90.6480,18.0,11111222 
ADCP,ioos:station:wmo:42362:1,2007-01-18T23:00:00Z,27.7950,-90.6480,18.0,11111222 
ADCP,ioos:station:wmo:42362:1,2007-01-19T00:00:00Z,27.7950,-90.6480,18.0,11111222 
ADCP,ioos:station:wmo:42362:1,2007-01-19T01:00:00Z,27.7950,-90.6480,18.0,11111222 
ADCP,ioos:station:wmo:42362:1,2007-01-19T02:00:00Z,27.7950,-90.6480,18.0,11111222 
ADCP,ioos:station:wmo:42362:1,2007-01-19T03:00:00Z,27.7950,-90.6480,18.0,11111222 
ADCP,ioos:station:wmo:42362:1,2007-01-19T04:00:00Z,27.7950,-90.6480,18.0,11111222 
ADCP,ioos:station:wmo:42362:1,2007-01-19T05:00:00Z,27.7950,-90.6480,19.0,11111222 
ADCP,ioos:station:wmo:42362:1,2007-01-19T06:00:00Z,27.7950,-90.6480,18.0,11111222 
ADCP,ioos:station:wmo:42362:1,2007-01-19T07:00:00Z,27.7950,-90.6480,19.0,11111222 
ADCP,ioos:station:wmo:42362:1,2007-01-19T08:00:00Z,27.7950,-90.6480,19.0,11111222 
ADCP,ioos:station:wmo:42362:1,2007-01-19T09:00:00Z,27.7950,-90.6480,19.0,11111222 
ADCP,ioos:station:wmo:42362:1,2007-01-19T10:00:00Z,27.7950,-90.6480,19.0,11111222 
ADCP,ioos:station:wmo:42362:1,2007-01-19T11:00:00Z,27.7950,-90.6480,18.0,11111222 
ADCP,ioos:station:wmo:42362:1,2007-01-19T12:00:00Z,27.7950,-90.6480,18.0,11111222 
ADCP,ioos:station:wmo:42362:1,2007-01-19T13:00:00Z,27.7950,-90.6480,18.0,11111222 
ADCP,ioos:station:wmo:42362:1,2007-01-19T14:00:00Z,27.7950,-90.6480,18.0,11111222 
ADCP,ioos:station:wmo:42362:1,2007-01-19T15:00:00Z,27.7950,-90.6480,18.0,11111222 
ADCP,ioos:station:wmo:42362:1,2007-01-19T16:00:00Z,27.7950,-90.6480,17.0,11111222 
ADCP,ioos:station:wmo:42362:1,2007-01-19T17:00:00Z,27.7950,-90.6480,17.0,11111222 
ADCP,ioos:station:wmo:42362:1,2007-01-19T18:00:00Z,27.7950,-90.6480,17.0,11111222 
ADCP,ioos:station:wmo:42362:1,2007-01-19T19:00:00Z,27.7950,-90.6480,17.0,11111222 
ADCP,ioos:station:wmo:42362:1,2007-01-19T20:00:00Z,27.7950,-90.6480,16.0,11111222 
ADCP,ioos:station:wmo:42362:1,2007-01-19T21:00:00Z,27.7950,-90.6480,16.0,11111222 
ADCP,ioos:station:wmo:42362:1,2007-01-19T22:00:00Z,27.7950,-90.6480,16.0,11111222 
ADCP,ioos:station:wmo:42362:1,2007-01-19T23:00:00Z,27.7950,-90.6480,16.0,11111222 
ADCP,ioos:station:wmo:42362:1,2007-01-20T00:00:00Z,27.7950,-90.6480,16.0,11111222 
ADCP,ioos:station:wmo:42362:1,2007-01-20T01:00:00Z,27.7950,-90.6480,17.0,11111222 
ADCP,ioos:station:wmo:42362:1,2007-01-20T02:00:00Z,27.7950,-90.6480,17.0,11111222 
ADCP,ioos:station:wmo:42362:1,2007-01-20T03:00:00Z,27.7950,-90.6480,17.0,11111222 
ADCP,ioos:station:wmo:42362:1,2007-01-20T04:00:00Z,27.7950,-90.6480,16.0,11111222 
ADCP,ioos:station:wmo:42362:1,2007-01-20T05:00:00Z,27.7950,-90.6480,16.0,11111222 
ADCP,ioos:station:wmo:42362:1,2007-01-20T06:00:00Z,27.7950,-90.6480,16.0,11111222 
ADCP,ioos:station:wmo:42362:1,2007-01-20T07:00:00Z,27.7950,-90.6480,15.0,11111222 
ADCP,ioos:station:wmo:42362:1,2007-01-20T08:00:00Z,27.7950,-90.6480,15.0,11111222 
ADCP,ioos:station:wmo:42362:1,2007-01-20T09:00:00Z,27.7950,-90.6480,16.0,11111222 
ADCP,ioos:station:wmo:42362:1,2007-01-20T10:00:00Z,27.7950,-90.6480,16.0,11111222 
ADCP,ioos:station:wmo:42362:1,2007-01-20T11:00:00Z,27.7950,-90.6480,16.0,11111222 
ADCP,ioos:station:wmo:42362:1,2007-01-20T12:00:00Z,27.7950,-90.6480,17.0,11111222 
ADCP,ioos:station:wmo:42362:1,2007-01-20T13:00:00Z,27.7950,-90.6480,17.0,11111222 
ADCP,ioos:station:wmo:42362:1,2007-01-20T14:00:00Z,27.7950,-90.6480,17.0,11111222 
ADCP,ioos:station:wmo:42362:1,2007-01-20T15:00:00Z,27.7950,-90.6480,17.0,11111222 
ADCP,ioos:station:wmo:42362:1,2007-01-20T16:00:00Z,27.7950,-90.6480,17.0,11111222 
ADCP,ioos:station:wmo:42362:1,2007-01-20T17:00:00Z,27.7950,-90.6480,17.0,11111222 
ADCP,ioos:station:wmo:42362:1,2007-01-20T19:00:00Z,27.7950,-90.6480,17.0,11111222 
ADCP,ioos:station:wmo:42362:1,2007-01-20T20:00:00Z,27.7950,-90.6480,18.0,11111222 
ADCP,ioos:station:wmo:42362:1,2007-01-20T21:00:00Z,27.7950,-90.6480,18.0,11111222 
ADCP,ioos:station:wmo:42362:1,2007-01-20T22:00:00Z,27.7950,-90.6480,17.0,11111222 
ADCP,ioos:station:wmo:42362:1,2007-01-20T23:00:00Z,27.7950,-90.6480,18.0,11111222 
ADCP,ioos:station:wmo:42362:1,2007-01-21T00:00:00Z,27.7950,-90.6480,18.0,11111222 
ADCP,ioos:station:wmo:42362:1,2007-01-21T01:00:00Z,27.7950,-90.6480,18.0,11111222 
ADCP,ioos:station:wmo:42362:1,2007-01-21T02:00:00Z,27.7950,-90.6480,19.0,11111222 
ADCP,ioos:station:wmo:42362:1,2007-01-21T03:00:00Z,27.7950,-90.6480,19.0,11111222 
ADCP,ioos:station:wmo:42362:1,2007-01-21T04:00:00Z,27.7950,-90.6480,19.0,11111222 
ADCP,ioos:station:wmo:42362:1,2007-01-21T05:00:00Z,27.7950,-90.6480,19.0,11111222 
ADCP,ioos:station:wmo:42362:1,2007-01-21T06:00:00Z,27.7950,-90.6480,19.0,11111222 
ADCP,ioos:station:wmo:42362:1,2007-01-21T07:00:00Z,27.7950,-90.6480,19.0,11111222 
ADCP,ioos:station:wmo:42362:1,2007-01-21T08:00:00Z,27.7950,-90.6480,20.0,11111222 
ADCP,ioos:station:wmo:42362:1,2007-01-21T09:00:00Z,27.7950,-90.6480,20.0,11111222 
ADCP,ioos:station:wmo:42362:1,2007-01-21T10:00:00Z,27.7950,-90.6480,20.0,11111222 
ADCP,ioos:station:wmo:42362:1,2007-01-21T11:00:00Z,27.7950,-90.6480,21.0,11111222 
ADCP,ioos:station:wmo:42362:1,2007-01-21T12:00:00Z,27.7950,-90.6480,21.0,11111222 
ADCP,ioos:station:wmo:42362:1,2007-01-21T13:00:00Z,27.7950,-90.6480,21.0,11111222 
ADCP,ioos:station:wmo:42362:1,2007-01-21T14:00:00Z,27.7950,-90.6480,21.0,11111222 
ADCP,ioos:station:wmo:42362:1,2007-01-21T15:00:00Z,27.7950,-90.6480,21.0,11111222 
ADCP,ioos:station:wmo:42362:1,2007-01-21T16:00:00Z,27.7950,-90.6480,21.0,11111222 
ADCP,ioos:station:wmo:42362:1,2007-01-21T17:00:00Z,27.7950,-90.6480,21.0,11111222 
ADCP,ioos:station:wmo:42362:1,2007-01-21T18:00:00Z,27.7950,-90.6480,21.0,11111222 
ADCP,ioos:station:wmo:42362:1,2007-01-21T19:00:00Z,27.7950,-90.6480,21.0,11111222 
ADCP,ioos:station:wmo:42362:1,2007-01-21T20:00:00Z,27.7950,-90.6480,21.0,11111222 